Orbital Elements at Epoch 2459000.5 (2020-May-31.0) TDB
Reference: JPL 16 (heliocentric ecliptic J2000)
Element | Value | Uncertainty (1-sigma) | Units |
e | .2259936620958838 | 5.239e-08 | |
a | 2.623373592803694 | 1.7195e-08 | au |
q | 2.030507787520351 | 1.4379e-07 | au |
i | 12.73781953019948 | 5.2175e-06 | deg |
node | 308.538633720124 | 2.0498e-05 | deg |
peri | 139.3335155227753 | 2.35e-05 | deg |
M | 8.114480166869969 | 1.0167e-05 | deg |
tp | 2458965.517822178700 (2020-Apr-26.01782218) | 4.3685e-05 | TDB |
period | 1551.98900689725 4.25 | 1.5259e-05 4.178e-08 | d yr |
n | .2319604059050104 | 2.2806e-09 | deg/d |
Q | 3.216239398087036 | 2.1081e-08 | au |
|
| | Orbit Determination Parameters
Additional Information
|